• en Suisse
  • Liste des pays
  • À 7 jours
  • Température de l'eau
  • Carte satellitaire
  • Carte météo
  • Widgets météo
  • user-avatar
    Se connecter

    Météo par heure à Novinka

    Ce jour, 16 Octobre, Mardi

    Heure Température Précipitation Vent Pression Humidité
    00:00 +9°C° 0 mm 2 m/s 754 mmHg 78%
    01:00 +8°C° 0 mm 2 m/s 754 mmHg 79%
    02:00 +7°C° 0 mm 2 m/s 754 mmHg 82%
    03:00 +7°C° 0 mm 2 m/s 754 mmHg 82%
    04:00 +7°C° 0 mm 2 m/s 754 mmHg 82%
    05:00 +7°C° 0 mm 2 m/s 754 mmHg 83%
    06:00 +7°C° 0 mm 2 m/s 754 mmHg 80%
    07:00 +8°C° 0 mm 2 m/s 754 mmHg 78%
    08:00 +8°C° 0 mm 3 m/s 754 mmHg 76%
    09:00 +10°C° 0 mm 3 m/s 754 mmHg 70%
    10:00 +12°C° 0 mm 3 m/s 754 mmHg 65%
    11:00 +13°C° 0 mm 3 m/s 754 mmHg 59%
    12:00 +14°C° 0 mm 3 m/s 754 mmHg 58%
    13:00 +16°C° 0 mm 3 m/s 753 mmHg 56%
    14:00 +17°C° 0 mm 3 m/s 753 mmHg 54%
    15:00 +16°C° 0 mm 3 m/s 753 mmHg 60%
    16:00 +14°C° 0 mm 2 m/s 753 mmHg 66%
    17:00 +13°C° 0 mm 2 m/s 753 mmHg 72%
    18:00 +12°C° 0 mm 2 m/s 753 mmHg 75%
    19:00 +12°C° 0 mm 2 m/s 753 mmHg 78%
    20:00 +10°C° 0 mm 2 m/s 753 mmHg 81%
    21:00 +9°C° 0 mm 2 m/s 753 mmHg 83%
    22:00 +9°C° 0 mm 2 m/s 753 mmHg 85%
    23:00 +9°C° 0 mm 2 m/s 753 mmHg 87%

    Demain, 17 Octobre, Mercredi

    Heure Température Précipitation Vent Pression Humidité
    00:00 +8°C° 0 mm 2 m/s 753 mmHg 89%
    01:00 +9°C° 0 mm 1 m/s 753 mmHg 90%
    02:00 +9°C° 0 mm 1 m/s 753 mmHg 92%
    03:00 +9°C° 0 mm 1 m/s 753 mmHg 92%
    04:00 +9°C° 0 mm 1 m/s 753 mmHg 92%
    05:00 +8°C° 0 mm 1 m/s 753 mmHg 93%
    06:00 +9°C° 0 mm 1 m/s 753 mmHg 91%
    07:00 +9°C° 0 mm 1 m/s 753 mmHg 90%
    08:00 +9°C° 0 mm 1 m/s 754 mmHg 89%
    09:00 +11°C° 0 mm 1 m/s 754 mmHg 82%
    10:00 +13°C° 0 mm 1 m/s 754 mmHg 75%
    11:00 +15°C° 0 mm 1 m/s 754 mmHg 68%
    12:00 +16°C° 0 mm 1 m/s 754 mmHg 66%
    13:00 +16°C° 0 mm 1 m/s 754 mmHg 64%
    14:00 +18°C° 0 mm 1 m/s 754 mmHg 62%
    15:00 +16°C° 0 mm 1 m/s 753 mmHg 68%
    16:00 +14°C° 0 mm 1 m/s 753 mmHg 75%
    17:00 +13°C° 0 mm 1 m/s 753 mmHg 81%
    18:00 +12°C° 0 mm 1 m/s 753 mmHg 84%
    19:00 +11°C° 0 mm 1 m/s 753 mmHg 86%
    20:00 +11°C° 0 mm 1 m/s 753 mmHg 89%
    21:00 +10°C° 0 mm 1 m/s 753 mmHg 90%
    22:00 +10°C° 0 mm 1 m/s 753 mmHg 91%
    23:00 +10°C° 0 mm 1 m/s 753 mmHg 92%

    Après-demain, 18 Octobre, Jeudi

    Heure Température Précipitation Vent Pression Humidité
    00:00 +10°C° 0 mm 1 m/s 753 mmHg 92%
    01:00 +9°C° 0 mm 1 m/s 753 mmHg 93%
    02:00 +9°C° 0 mm 1 m/s 753 mmHg 93%
    03:00 +9°C° 0 mm 1 m/s 753 mmHg 93%
    04:00 +9°C° 0 mm 1 m/s 753 mmHg 93%
    05:00 +9°C° 0 mm 1 m/s 752 mmHg 94%
    06:00 +8°C° 0 mm 2 m/s 752 mmHg 93%
    07:00 +8°C° 0 mm 2 m/s 752 mmHg 92%
    08:00 +9°C° 0 mm 2 m/s 752 mmHg 91%
    09:00 +12°C° 0 mm 2 m/s 752 mmHg 84%
    10:00 +13°C° 0 mm 2 m/s 752 mmHg 78%
    11:00 +15°C° 0 mm 2 m/s 751 mmHg 72%
    12:00 +16°C° 0 mm 2 m/s 751 mmHg 70%
    13:00 +17°C° 0 mm 2 m/s 751 mmHg 67%
    14:00 +18°C° 0 mm 2 m/s 751 mmHg 65%
    15:00 +17°C° 0 mm 2 m/s 750 mmHg 72%
    16:00 +15°C° 0 mm 2 m/s 750 mmHg 79%
    17:00 +14°C° 0 mm 2 m/s 750 mmHg 86%
    18:00 +13°C° 0 mm 2 m/s 749 mmHg 89%
    19:00 +13°C° 0 mm 2 m/s 749 mmHg 91%
    20:00 +12°C° 0 mm 2 m/s 749 mmHg 93%
    21:00 +12°C° 0 mm 2 m/s 749 mmHg 93%
    22:00 +12°C° 0 mm 2 m/s 749 mmHg 94%
    23:00 +12°C° 0 mm 2 m/s 749 mmHg 94%

    19 Octobre, Vendredi

    Heure Température Précipitation Vent Pression Humidité
    00:00 +10°C° 0 mm 2 m/s 749 mmHg 95%
    01:00 +10°C° 0 mm 2 m/s 749 mmHg 95%
    02:00 +10°C° 0 mm 2 m/s 749 mmHg 96%
    03:00 +10°C° 0 mm 1 m/s 748 mmHg 96%
    04:00 +10°C° 0 mm 1 m/s 748 mmHg 96%
    05:00 +10°C° 0 mm 1 m/s 748 mmHg 96%
    06:00 +10°C° 0 mm 1 m/s 748 mmHg 96%
    07:00 +10°C° 0 mm 1 m/s 748 mmHg 95%
    08:00 +10°C° 0 mm 1 m/s 748 mmHg 94%
    09:00 +11°C° 0 mm 1 m/s 748 mmHg 89%
    10:00 +12°C° 0 mm 1 m/s 748 mmHg 85%
    11:00 +13°C° 0 mm 1 m/s 749 mmHg 80%
    12:00 +14°C° 0 mm 1 m/s 749 mmHg 79%
    13:00 +14°C° 0 mm 1 m/s 749 mmHg 78%
    14:00 +14°C° 0 mm 2 m/s 748 mmHg 77%
    15:00 +13°C° 0 mm 2 m/s 749 mmHg 81%
    16:00 +12°C° 0 mm 2 m/s 749 mmHg 85%
    17:00 +12°C° 0 mm 2 m/s 749 mmHg 89%
    18:00 +10°C° 0 mm 2 m/s 749 mmHg 89%
    19:00 +10°C° 0 mm 2 m/s 749 mmHg 89%
    20:00 +9°C° 0 mm 2 m/s 750 mmHg 88%
    21:00 +8°C° 0 mm 2 m/s 750 mmHg 89%
    22:00 +8°C° 0 mm 2 m/s 750 mmHg 90%
    23:00 +7°C° 0 mm 2 m/s 750 mmHg 90%

    20 Octobre, Samedi

    Heure Température Précipitation Vent Pression Humidité
    00:00 +7°C° 0 mm 1 m/s 750 mmHg 91%
    01:00 +7°C° 0 mm 1 m/s 750 mmHg 91%
    02:00 +6°C° 0 mm 1 m/s 750 mmHg 91%
    03:00 +6°C° 0 mm 1 m/s 750 mmHg 92%
    04:00 +5°C° 0 mm 1 m/s 750 mmHg 92%
    05:00 +5°C° 0 mm 1 m/s 750 mmHg 92%
    06:00 +5°C° 0 mm 1 m/s 750 mmHg 91%
    07:00 +5°C° 0 mm 1 m/s 750 mmHg 89%
    08:00 +5°C° 0 mm 1 m/s 750 mmHg 88%
    09:00 +7°C° 0 mm 1 m/s 750 mmHg 80%
    10:00 +8°C° 0 mm 1 m/s 750 mmHg 73%
    11:00 +10°C° 0 mm 1 m/s 751 mmHg 65%
    12:00 +10°C° 0 mm 1 m/s 750 mmHg 63%
    13:00 +11°C° 0 mm 1 m/s 750 mmHg 60%
    14:00 +11°C° 0 mm 1 m/s 750 mmHg 57%
    15:00 +10°C° 0 mm 1 m/s 750 mmHg 63%
    16:00 +8°C° 0 mm 1 m/s 750 mmHg 69%
    17:00 +7°C° 0 mm 1 m/s 750 mmHg 75%
    18:00 +7°C° 0 mm 1 m/s 750 mmHg 78%
    19:00 +6°C° 0 mm 1 m/s 750 mmHg 81%
    20:00 +5°C° 0 mm 1 m/s 750 mmHg 84%
    21:00 +4°C° 0 mm 0 m/s 749 mmHg 86%
    22:00 +4°C° 0 mm 0 m/s 749 mmHg 88%
    23:00 +3°C° 0 mm 0 m/s 749 mmHg 90%

    21 Octobre, Dimanche

    Heure Température Précipitation Vent Pression Humidité
    00:00 +3°C° 0 mm 0 m/s 749 mmHg 90%
    01:00 +3°C° 0 mm 0 m/s 749 mmHg 91%
    02:00 +3°C° 0 mm 0 m/s 749 mmHg 91%
    03:00 +3°C° 0 mm 0 m/s 749 mmHg 91%
    04:00 +3°C° 0 mm 0 m/s 749 mmHg 92%
    05:00 +3°C° 0 mm 0 m/s 749 mmHg 92%
    06:00 +4°C° 0 mm 0 m/s 749 mmHg 90%
    07:00 +4°C° 0 mm 0 m/s 749 mmHg 89%
    08:00 +4°C° 0 mm 0 m/s 749 mmHg 87%
    09:00 +6°C° 0 mm 1 m/s 749 mmHg 81%
    10:00 +7°C° 0 mm 1 m/s 749 mmHg 76%
    11:00 +9°C° 0 mm 1 m/s 749 mmHg 70%
    12:00 +9°C° 0 mm 1 m/s 749 mmHg 67%
    13:00 +9°C° 0 mm 1 m/s 749 mmHg 64%
    14:00 +10°C° 0 mm 1 m/s 749 mmHg 62%
    15:00 +8°C° 0 mm 1 m/s 749 mmHg 67%
    16:00 +7°C° 0 mm 1 m/s 749 mmHg 72%
    17:00 +6°C° 0 mm 1 m/s 749 mmHg 78%
    18:00 +6°C° 0 mm 1 m/s 750 mmHg 81%
    19:00 +4°C° 0 mm 0 m/s 750 mmHg 83%
    20:00 +4°C° 0 mm 0 m/s 750 mmHg 86%
    21:00 +4°C° 0 mm 0 m/s 750 mmHg 87%
    22:00 +3°C° 0 mm 0 m/s 750 mmHg 88%
    23:00 +3°C° 0 mm 0 m/s 750 mmHg 90%
    Voir plus